This is the latest recevied weather packets stored in our database for station/object K3HM. If no packets are shown the sender has not sent any weather packets the latest 10 day(s).
| Time | Temp. | Humidity | Pressure | Rain* | Wind** | Luminosity | Snow |
|---|---|---|---|---|---|---|---|
| 1777479314 | 11.67° C | 99% | 1011.7 hPa | 0 mm | - | 156 W/m² | - |
| 1777479010 | 11.67° C | 99% | 1011.5 hPa | 0 mm | - | 199 W/m² | - |
| 1777478707 | 11.67° C | 99% | 1011.6 hPa | 0 mm | - | 224 W/m² | - |
| 1777478403 | 11.67° C | 99% | 1011.9 hPa | 0 mm | - | 236 W/m² | - |
| 1777478100 | 12.22° C | 99% | 1011.9 hPa | 0 mm | - | 137 W/m² | - |
| 1777477796 | 12.22° C | 99% | 1012.4 hPa | 0 mm | - | 114 W/m² | - |
| 1777477492 | 11.67° C | 99% | 1012.3 hPa | 1.78 mm | - | 141 W/m² | - |
| 1777477189 | 11.67° C | 99% | 1012.5 hPa | 3.56 mm | - | 145 W/m² | - |
| 1777476885 | 11.67° C | 99% | 1012.8 hPa | 4.83 mm | - | 115 W/m² | - |
| 1777476583 | 11.11° C | 99% | 1012.8 hPa | 6.1 mm | - | 88 W/m² | - |
| 1777476279 | 11.11° C | 99% | 1013.2 hPa | 7.87 mm | - | 67 W/m² | - |
| 1777475974 | 11.11° C | 99% | 1013.3 hPa | 7.87 mm | - | 47 W/m² | - |
| 1777475671 | 11.11° C | 99% | 1013.2 hPa | 6.1 mm | - | 34 W/m² | - |
| 1777475368 | 10.56° C | 99% | 1013.3 hPa | 7.87 mm | - | 32 W/m² | - |
| 1777475062 | 10.56° C | 99% | 1013.3 hPa | 15.49 mm | - | 31 W/m² | - |
| 1777474760 | 10.56° C | 99% | 1013.7 hPa | 14.99 mm | - | 23 W/m² | - |
| 1777474456 | 10.56° C | 99% | 1013.7 hPa | 11.94 mm | - | 11 W/m² | - |
| 1777474152 | 10° C | 99% | 1013.2 hPa | 7.87 mm | - | 8 W/m² | - |
| 1777473850 | 10° C | 99% | 1012.9 hPa | 3.05 mm | - | 19 W/m² | - |
| 1777473548 | 10° C | 99% | 1012.9 hPa | 1.27 mm | - | 14 W/m² | - |
| 1777473248 | 10° C | 99% | 1012.8 hPa | 3.05 mm | - | 13 W/m² | - |
| 1777472944 | 10° C | 99% | 1012.7 hPa | 7.87 mm | - | 13 W/m² | - |
| 1777472641 | 10.56° C | 99% | 1012.8 hPa | 6.1 mm | - | 22 W/m² | - |
| 1777472337 | 10° C | 99% | 1013.1 hPa | 1.27 mm | - | 21 W/m² | - |
| 1777472035 | 10° C | 99% | 1012.6 hPa | 0 mm | - | 24 W/m² | - |
* Rain latest hour (hover to see other rain measurements)
** Current wind speed in m/s (hover to see current wind gust speed)